map of TSR home
TSR - Airport
Location
City:  Timisoara, Timisdepartment, Romania
Name:Traian Vuia International Airport
Old (Alt.):Giarmata Airport
ICAO:LRTR
IATA:TSR

Details
Type:Airport (Aerodrome, Airfield)
Use:Public/Civil, Military, International (customs port of entry)
Latitude:4548'35"N (45.809861)
Longitude:2120'16"E (21.337861)
Datum:WGS 1984
Elevation:348 ft (106 m)
Variation:5.23E (WMM2015v2 magnetic declination)
0.14 annual change
Runways:1
Longest:11483 × 148 ft (3500 × 45 m), paved

Time
Time Zone:UTC+2 (DST+3)
Local Time:

Weather
METAR:LRTR 041400Z 33006KT 9999 FEW017 06/04 Q1027
TAF:LRTR 041100Z 0412/0512 32008KT CAVOK PROB30
TEMPO 0417/0424 5000 -RA BR BKN015 BKN040 PROB40
TEMPO 0500/0507 3000 -RA BR BKN010 BKN025
TEMPO 0507/0512 1500 RADZ BR OVC005

Related Locations
Nearby:
Farthest:CHT: 11556 mi / 18598 km
Waitangi [Tuuta], CIT, NZ

Find:

   beyond  
but within

Other Information
Maps:
NOTAMs:
Links:
Sources:

  
  • flag of Romania
  

Sectional Chart

Flight Planning
at skyvector.com

Satellite Image

Google Maps Satellite view

 

Copyright © 2004-2019 Karl L. Swartz. All rights reserved.
The Great Circle Mapper name and logo are trademarks of the Great Circle Mapper.
All other trademarks mentioned herein belong to their respective owners.
Please see credits for attibutions and further copyright information.

  Follow gcmap on Facebook Follow gcmap on Twitter GCmap on LinkedIn

hCard Microformat

Geo Microformat